Regional Weather Roundup
Issued by NWS

Home | Current Version | Previous Version | Text Only | Print | Product List | Glossary Off
Versions: 1 2 3 4 5 6 7 8 9 10 11 12 13 14 15 16 17 18 19 20 21 22 23 24 25 26 27

000
ASUS45 KBOI 251610
RWRID

IDAHO REGIONAL WEATHER ROUNDUP
NATIONAL WEATHER SERVICE BOISE ID
900 AM MST SAT FEB 25 2017

NOTE: "FAIR" INDICATES FEW OR NO CLOUDS BELOW 12000 FEET
WITH NO SIGNIFICANT WEATHER AND/OR OBSTRUCTIONS TO VISIBILITY

IDZ012-014-251700-
SOUTHWEST IDAHO


CITY           SKY/WX    TMP DP  RH WIND       PRES   REMARKS
BOISE          SUNNY     25  18  74 SE5       30.16R WCI  19
CALDWELL       SUNNY     25  22  88 S5        30.19R WCI  19
MOUNTAIN HOME  SUNNY     23  21  93 E5        30.15R WCI  17
$$

IDZ016-017-251700-
SOUTHCENTRAL IDAHO


CITY           SKY/WX    TMP DP  RH WIND       PRES   REMARKS
BURLEY         SUNNY     19  12  74 SW3       30.08R
JEROME           N/A    N/A N/A N/A MISG      30.10R
TWIN FALLS     SUNNY     18  10  71 S10       30.10R WCI   6
$$

IDZ019>023-251700-
SOUTHEAST IDAHO


CITY           SKY/WX    TMP DP  RH WIND       PRES   REMARKS
IDAHO FALLS    CLOUDY    11   7  84 SW7       30.03R WCI   0
POCATELLO      MOSUNNY   13   6  74 SW6       30.06R WCI   4
REXBURG        LGT SNOW  13   8  81 SW10      30.01R WCI   0
$$

IDZ006-010-011-018-031-032-251700-
CENTRAL IDAHO MOUNTAINS


CITY           SKY/WX    TMP DP  RH WIND       PRES   REMARKS
MCCALL         CLOUDY     9   5  84 CALM      30.01S
HAILEY         SUNNY     10   1  67 NW9       30.03R WCI  -2
STANLEY          N/A      0  -5  79 S5        29.98R WCI -10
SALMON         PTSUNNY   23   9  54 SW16      30.02S WCI  10
CHALLIS        SUNNY     15   4  61 CALM      30.01S
$$

IDZ002-004-006-007-026-251700-
NORTHERN IDAHO


CITY           SKY/WX    TMP DP  RH WIND       PRES   REMARKS
LEWISTON       SUNNY     27  21  78 CALM      30.18R
LOWELL           N/A     28  22  78 CALM      30.20R
COEUR D`ALENE  CLOUDY    25  23  93 S7        30.09R FOG     WCI  17
MULLAN PASS    LGT SNOW  13  11  92 VRB6      29.85S VSB 3/4 WCI   4
$$




USA.gov is the U.S. government's official web portal to all federal, state and local government web resources and services.